Погода в Ивайловграде

Болгария     41°31′39″N   26°07′28″E
темп.,
°C
ветер,
м/с
пор.,
м/с
влажн.,
%
обл.,
%
осадки,
мм/ч
давл.,
гПа
погр.,
м
17 апреля, сб
сб1700:00+8вюв2486100 0.1 1020270
03:00+6вюв2490100 0.6 1020264
06:00+5вюв1289100 0.0 1019155
09:00+7в258294 0.0 1019445
12:00+10вюв5677100 0.0 1018882
15:00+11в4578100 0.3 1016880
18:00+10вюв567977 0.0 1015690
21:00+7юв229597 0.1 101542
18 апреля, вс
вс1800:00+5ююз119264 0.0 101510
03:00+7всв008791 0.0 101540
06:00+7св1189100 0.0 101486
09:00+8в1285100 0.0 1014303
12:00+10юв2183100 0.0 1014341
15:00+12ююв2283100 0.0 1013450
18:00+14ююв1382100 0.0 1012486
21:00+11зсз2294100 0.0 101429
19 апреля, пн
пн1900:00+10ссз1194100 0.0 101410
03:00+9ссв119660 0.0 101310
06:00+10св0099100 1.6 101127
09:00+10с1299100 4.9 1010208
12:00+10с1399100 6.3 1009357
15:00+10сз2295100 7.0 1007353
18:00+10сз249299 0.2 1006479
21:00+8сз4894100 1.9 1006567
20 апреля, вт
вт2000:00+6сз3795100 2.3 1008333
03:00+6сз3889100 2.3 1008292
06:00+5зсз2593100 0.0 1009149
09:00+9зсз497876 0.0 1011830
12:00+13з356077 0.0 10121630
15:00+14юз346376 1.1 10121258
18:00+12сз237461 0.9 1013547
21:00+8юз22867 0.9 101514
21 апреля, ср
ср2100:00+7юз22885 0.0 101523
03:00+7зюз228835 0.0 101521
06:00+6з11916 0.0 101610
09:00+11з117911 0.0 1016264
12:00+15ююз1360100 0.4 10161236
15:00+16юз555193 0.6 10161838
18:00+15юз45633 0.0 10161074
21:00+10юз22853 0.0 101718